When you browse on this site, cookies collect data to enhance your experience and personalize the content and advertising you see.
Visit our Privacy Policy to learn more. By continuing to use the site, you agree to this use of cookies and data.
  • In Netherlands
  • List of Countries
  • For 7 days
  • Water Temperature
  • Weather Map
  • Weather Widgets
  • user-avatar
    Login

    Hourly Weather Ushakovskie Gorki

    Today, 2 June, Tuesday

    Time Temperature Precipitation Wind Pressure Humidity
    00:00 +6°C° 0 mm 4 mps 747 mmHg 89%
    01:00 +6°C° 0 mm 4 mps 747 mmHg 89%
    02:00 +5°C° 0 mm 4 mps 747 mmHg 89%
    03:00 +6°C° 0 mm 4 mps 747 mmHg 87%
    04:00 +6°C° 0 mm 5 mps 747 mmHg 85%
    05:00 +6°C° 0 mm 5 mps 746 mmHg 82%
    06:00 +7°C° 0 mm 5 mps 746 mmHg 75%
    07:00 +9°C° 0 mm 6 mps 747 mmHg 68%
    08:00 +10°C° 0 mm 6 mps 747 mmHg 61%
    09:00 +11°C° 0 mm 6 mps 747 mmHg 59%
    10:00 +13°C° 0 mm 6 mps 747 mmHg 57%
    11:00 +14°C° 0 mm 6 mps 746 mmHg 55%
    12:00 +13°C° 0.2 mm 6 mps 746 mmHg 61%
    13:00 +12°C° 0.2 mm 5 mps 746 mmHg 68%
    14:00 +11°C° 0.2 mm 4 mps 746 mmHg 74%
    15:00 +11°C° 0.1 mm 4 mps 746 mmHg 78%
    16:00 +10°C° 0.1 mm 4 mps 745 mmHg 83%
    17:00 +10°C° 0.1 mm 3 mps 745 mmHg 87%
    18:00 +8°C° 0.1 mm 4 mps 745 mmHg 88%
    19:00 +8°C° 0.1 mm 4 mps 745 mmHg 89%
    20:00 +8°C° 0.1 mm 4 mps 745 mmHg 89%
    21:00 +8°C° 0.2 mm 4 mps 745 mmHg 91%
    22:00 +8°C° 0.2 mm 4 mps 745 mmHg 92%
    23:00 +8°C° 0.2 mm 4 mps 744 mmHg 94%

    Tomorrow, 3 June, Wednesday

    Time Temperature Precipitation Wind Pressure Humidity
    00:00 +8°C° 0.3 mm 4 mps 744 mmHg 95%
    01:00 +8°C° 0.3 mm 4 mps 744 mmHg 96%
    02:00 +8°C° 0.3 mm 4 mps 744 mmHg 97%
    03:00 +8°C° 0.3 mm 4 mps 744 mmHg 97%
    04:00 +8°C° 0.3 mm 4 mps 744 mmHg 97%
    05:00 +10°C° 0.3 mm 3 mps 743 mmHg 97%
    06:00 +10°C° 0 mm 3 mps 744 mmHg 97%
    07:00 +10°C° 0 mm 3 mps 744 mmHg 96%
    08:00 +11°C° 0 mm 4 mps 744 mmHg 96%
    09:00 +11°C° 0 mm 4 mps 744 mmHg 95%
    10:00 +12°C° 0 mm 4 mps 744 mmHg 93%
    11:00 +12°C° 0 mm 4 mps 743 mmHg 92%
    12:00 +12°C° 0.7 mm 4 mps 743 mmHg 94%
    13:00 +12°C° 0.7 mm 4 mps 743 mmHg 95%
    14:00 +12°C° 0.7 mm 4 mps 743 mmHg 97%
    15:00 +12°C° 1 mm 3 mps 743 mmHg 96%
    16:00 +12°C° 1 mm 3 mps 742 mmHg 96%
    17:00 +13°C° 1 mm 3 mps 742 mmHg 96%
    18:00 +13°C° 0.7 mm 3 mps 741 mmHg 96%
    19:00 +13°C° 0.7 mm 3 mps 741 mmHg 95%
    20:00 +13°C° 0.7 mm 3 mps 741 mmHg 95%
    21:00 +13°C° 1 mm 3 mps 741 mmHg 96%
    22:00 +13°C° 1 mm 3 mps 740 mmHg 97%
    23:00 +12°C° 1 mm 3 mps 740 mmHg 97%

    Day after tomorrow, 4 June, Thursday

    Time Temperature Precipitation Wind Pressure Humidity
    00:00 +12°C° 1.4 mm 3 mps 739 mmHg 97%
    01:00 +12°C° 1.4 mm 3 mps 739 mmHg 98%
    02:00 +12°C° 1.4 mm 3 mps 738 mmHg 98%
    03:00 +12°C° 2 mm 3 mps 737 mmHg 98%
    04:00 +12°C° 2 mm 3 mps 737 mmHg 98%
    05:00 +12°C° 2 mm 3 mps 736 mmHg 98%
    06:00 +12°C° 0.8 mm 3 mps 736 mmHg 98%
    07:00 +13°C° 0.8 mm 2 mps 735 mmHg 98%
    08:00 +13°C° 0.8 mm 2 mps 735 mmHg 97%
    09:00 +14°C° 0.1 mm 2 mps 735 mmHg 93%
    10:00 +15°C° 0.1 mm 2 mps 736 mmHg 89%
    11:00 +17°C° 0.1 mm 2 mps 736 mmHg 85%
    12:00 +17°C° 0.5 mm 2 mps 736 mmHg 83%
    13:00 +18°C° 0.5 mm 2 mps 736 mmHg 82%
    14:00 +19°C° 0.5 mm 3 mps 737 mmHg 80%
    15:00 +18°C° 1.2 mm 3 mps 737 mmHg 82%
    16:00 +18°C° 1.2 mm 3 mps 737 mmHg 85%
    17:00 +17°C° 1.2 mm 3 mps 737 mmHg 87%
    18:00 +16°C° 0.7 mm 3 mps 737 mmHg 89%
    19:00 +15°C° 0.7 mm 2 mps 738 mmHg 91%
    20:00 +14°C° 0.7 mm 2 mps 738 mmHg 92%
    21:00 +13°C° 0 mm 2 mps 738 mmHg 94%
    22:00 +12°C° 0 mm 2 mps 739 mmHg 95%
    23:00 +10°C° 0 mm 2 mps 739 mmHg 97%

    5 June, Friday

    Time Temperature Precipitation Wind Pressure Humidity
    00:00 +9°C° 0 mm 2 mps 739 mmHg 97%
    01:00 +9°C° 0 mm 2 mps 740 mmHg 97%
    02:00 +9°C° 0 mm 2 mps 740 mmHg 97%
    03:00 +9°C° 0 mm 2 mps 740 mmHg 97%
    04:00 +10°C° 0 mm 2 mps 740 mmHg 96%
    05:00 +10°C° 0 mm 2 mps 740 mmHg 96%
    06:00 +12°C° 0.1 mm 3 mps 741 mmHg 91%
    07:00 +14°C° 0.1 mm 3 mps 741 mmHg 86%
    08:00 +17°C° 0.1 mm 3 mps 741 mmHg 81%
    09:00 +17°C° 0.8 mm 4 mps 741 mmHg 80%
    10:00 +18°C° 0.8 mm 4 mps 741 mmHg 79%
    11:00 +19°C° 0.8 mm 4 mps 741 mmHg 77%
    12:00 +19°C° 0.7 mm 4 mps 741 mmHg 76%
    13:00 +19°C° 0.7 mm 4 mps 741 mmHg 75%
    14:00 +19°C° 0.7 mm 3 mps 741 mmHg 73%
    15:00 +19°C° 0.7 mm 3 mps 741 mmHg 76%
    16:00 +19°C° 0.7 mm 3 mps 741 mmHg 79%
    17:00 +18°C° 0.7 mm 2 mps 740 mmHg 81%
    18:00 +17°C° 0.3 mm 2 mps 740 mmHg 85%
    19:00 +16°C° 0.3 mm 2 mps 740 mmHg 88%
    20:00 +14°C° 0.3 mm 2 mps 740 mmHg 91%
    21:00 +14°C° 0 mm 2 mps 741 mmHg 93%
    22:00 +13°C° 0 mm 2 mps 741 mmHg 94%
    23:00 +12°C° 0 mm 2 mps 741 mmHg 95%

    6 June, Saturday

    Time Temperature Precipitation Wind Pressure Humidity
    00:00 +12°C° 0 mm 1 mps 741 mmHg 95%
    01:00 +11°C° 0 mm 1 mps 741 mmHg 96%
    02:00 +11°C° 0 mm 1 mps 741 mmHg 96%
    03:00 +12°C° 0 mm 1 mps 741 mmHg 96%
    04:00 +12°C° 0 mm 1 mps 741 mmHg 96%
    05:00 +13°C° 0 mm 1 mps 741 mmHg 95%
    06:00 +14°C° 0 mm 1 mps 741 mmHg 90%
    07:00 +16°C° 0 mm 2 mps 741 mmHg 85%
    08:00 +18°C° 0 mm 2 mps 741 mmHg 80%
    09:00 +19°C° 0 mm 2 mps 741 mmHg 73%
    10:00 +20°C° 0 mm 2 mps 741 mmHg 65%
    11:00 +23°C° 0 mm 2 mps 741 mmHg 58%
    12:00 +23°C° 0.3 mm 2 mps 740 mmHg 58%
    13:00 +23°C° 0.3 mm 2 mps 740 mmHg 58%
    14:00 +23°C° 0.3 mm 2 mps 740 mmHg 58%
    15:00 +23°C° 0.1 mm 2 mps 740 mmHg 60%
    16:00 +23°C° 0.1 mm 2 mps 739 mmHg 63%
    17:00 +23°C° 0.1 mm 2 mps 739 mmHg 65%
    18:00 +20°C° 0 mm 2 mps 739 mmHg 74%
    19:00 +18°C° 0 mm 2 mps 739 mmHg 83%
    20:00 +16°C° 0 mm 1 mps 739 mmHg 92%
    21:00 +16°C° 0 mm 1 mps 739 mmHg 93%
    22:00 +15°C° 0 mm 1 mps 739 mmHg 94%
    23:00 +14°C° 0 mm 1 mps 739 mmHg 96%

    7 June, Sunday

    Time Temperature Precipitation Wind Pressure Humidity
    00:00 +14°C° 0.2 mm 2 mps 739 mmHg 96%
    01:00 +14°C° 0.2 mm 2 mps 738 mmHg 97%
    02:00 +15°C° 0.2 mm 2 mps 738 mmHg 97%
    03:00 +15°C° 0.5 mm 2 mps 738 mmHg 98%
    04:00 +15°C° 0.5 mm 2 mps 738 mmHg 98%
    05:00 +16°C° 0.5 mm 2 mps 738 mmHg 98%
    06:00 +17°C° 0.3 mm 2 mps 738 mmHg 96%
    07:00 +18°C° 0.3 mm 3 mps 738 mmHg 94%
    08:00 +19°C° 0.3 mm 3 mps 738 mmHg 92%
    09:00 +19°C° 0.2 mm 3 mps 738 mmHg 92%
    10:00 +19°C° 0.2 mm 3 mps 739 mmHg 91%
    11:00 +19°C° 0.2 mm 3 mps 739 mmHg 91%
    12:00 +20°C° 0.2 mm 3 mps 739 mmHg 85%
    13:00 +21°C° 0.2 mm 3 mps 738 mmHg 80%
    14:00 +24°C° 0.2 mm 3 mps 738 mmHg 75%
    15:00 +22°C° 1 mm 3 mps 738 mmHg 79%
    16:00 +22°C° 1 mm 3 mps 738 mmHg 83%
    17:00 +21°C° 1 mm 3 mps 738 mmHg 88%
    18:00 +20°C° 0.2 mm 2 mps 738 mmHg 90%
    19:00 +19°C° 0.2 mm 2 mps 738 mmHg 92%
    20:00 +18°C° 0.2 mm 2 mps 738 mmHg 94%
    21:00 +17°C° 0.2 mm 2 mps 738 mmHg 95%
    22:00 +17°C° 0.2 mm 2 mps 738 mmHg 96%
    23:00 +16°C° 0.2 mm 3 mps 738 mmHg 97%
    Show more